START_TIME,STEP,MOV.,H8,t_acc.,H43,t_acc.,M25,t_acc.,H9,t_acc.
1980-11-14 15:00:18.070 ,7,0,0.,12.0,0.,12.0,0.,12.0,0.,12.0
1980-11-14 15:00:30.070 ,7,0,0.,12.0,0.,12.0,0.,12.0,0.,12.0
1980-11-14 15:00:42.070 ,6,0,0.,12.0,0.,12.0,0.,12.0,0.,12.0
1980-11-14 15:00:54.070 ,6,0,0.,12.0,0.,12.0,0.,12.0,0.,12.0
1980-11-14 15:01:06.070 ,6,0,0.,12.0,0.,12.0,0.,12.0,0.,12.0
1980-11-14 15:01:18.070 ,6,0,0.,12.0,0.,12.0,0.,12.0,0.,12.0
1980-11-14 15:01:30.070 ,5,0,0.,12.0,0.,12.0,0.,12.0,0.,12.0
1980-11-14 15:01:42.070 ,5,0,0.,12.0,0.,12.0,0.,12.0,0.,12.0
1980-11-14 15:01:54.070 ,5,0,0.,12.0,0.,12.0,0.,12.0,0.,12.0
1980-11-14 15:02:06.070 ,5,0,0.,12.0,0.,12.0,0.,12.0,0.,12.0
1980-11-14 15:02:18.070 ,4,0,0.,12.0,0.,12.0,0.,12.0,0.,12.0
1980-11-14 15:02:30.070 ,4,0,0.,12.0,0.,12.0,0.,12.0,0.,12.0
1980-11-14 15:02:42.070 ,4,0,0.,12.0,0.,12.0,0.,12.0,0.,12.0
1980-11-14 15:02:54.070 ,4,0,0.,12.0,0.,12.0,0.,12.0,0.,12.0
1980-11-14 15:03:06.070 ,3,0,0.,12.0,0.,12.0,0.,12.0,0.,12.0
1980-11-14 15:03:18.070 ,3,0,0.,12.0,0.,12.0,0.,12.0,0.,12.0
1980-11-14 15:03:30.070 ,3,0,0.,12.0,0.,12.0,0.,12.0,0.,12.0
1980-11-14 15:03:42.070 ,3,0,0.,12.0,0.,12.0,0.,12.0,0.,12.0
1980-11-14 15:03:54.070 ,2,0,0.,12.0,0.,12.0,0.,12.0,0.,12.0
1980-11-14 15:04:06.070 ,2,0,0.,12.0,0.,12.0,0.,12.0,0.,12.0
1980-11-14 15:04:18.070 ,2,0,0.,12.0,0.,12.0,0.,12.0,0.,12.0
1980-11-14 15:04:30.070 ,2,0,0.,12.0,0.,12.0,0.,12.0,0.,12.0
1980-11-14 15:04:42.070 ,1,0,0.,12.0,0.,12.0,0.,12.0,0.,12.0
1980-11-14 15:04:54.070 ,1,0,0.,12.0,0.,12.0,0.,12.0,0.,12.0
1980-11-14 15:05:06.070 ,1,0,0.,12.0,0.,12.0,0.,12.0,0.,12.0
1980-11-14 15:05:18.070 ,1,0,0.,12.0,0.,12.0,0.,12.0,0.,12.0
1980-11-14 15:05:30.070 ,0,0,0.,12.0,0.,12.0,0.,12.0,0.,12.0
1980-11-14 15:05:42.070 ,0,0,0.,12.0,0.,12.0,0.,12.0,0.,12.0
1980-11-14 15:05:54.070 ,0,0,0.,12.0,0.,12.0,0.,12.0,0.,12.0
1980-11-14 15:06:06.070 ,0,0,0.,12.0,0.,12.0,0.,12.0,0.,12.0
1980-11-14 15:06:18.070 ,0,0,0.,12.0,0.,12.0,0.,12.0,0.,12.0
1980-11-14 15:06:30.070 ,0,0,0.,12.0,0.,12.0,0.,12.0,0.,12.0
1980-11-14 15:06:42.070 ,0,0,0.,12.0,0.,12.0,0.,12.0,0.,12.0
1980-11-14 15:06:54.070 ,0,0,0.,12.0,0.,12.0,0.,12.0,0.,12.0
1980-11-14 15:07:06.070 ,1,0,0.,12.0,0.,12.0,0.,12.0,0.,12.0
1980-11-14 15:07:18.070 ,1,0,0.,12.0,0.,12.0,0.,12.0,0.,12.0
1980-11-14 15:07:30.070 ,1,0,0.,12.0,0.,12.0,0.,12.0,0.,12.0
1980-11-14 15:07:42.070 ,1,0,0.,12.0,0.,12.0,0.,12.0,0.,12.0
1980-11-14 15:07:54.070 ,2,0,0.,12.0,0.,12.0,0.,12.0,0.,12.0
1980-11-14 15:08:06.070 ,2,0,0.,12.0,0.,12.0,0.,12.0,0.,12.0
1980-11-14 15:08:18.070 ,2,0,0.,12.0,0.,12.0,0.,12.0,0.,12.0
1980-11-14 15:08:30.070 ,2,0,0.,12.0,0.,12.0,0.,12.0,0.,12.0
1980-11-14 15:08:42.070 ,3,0,0.,12.0,0.,12.0,0.,12.0,0.,12.0
1980-11-14 15:08:54.070 ,3,0,0.,12.0,0.,12.0,0.,12.0,0.,12.0
1980-11-14 15:09:06.070 ,3,0,0.,12.0,0.,12.0,0.,12.0,0.,12.0
1980-11-14 15:09:18.070 ,3,0,0.,12.0,0.,12.0,0.,12.0,0.,12.0
1980-11-14 15:09:30.070 ,4,0,0.,12.0,0.,12.0,0.,12.0,0.,12.0
1980-11-14 15:09:42.070 ,4,0,0.,12.0,0.,12.0,0.,12.0,0.,12.0
1980-11-14 15:09:54.070 ,4,0,0.,12.0,0.,12.0,0.,12.0,0.,12.0
1980-11-14 15:10:06.070 ,4,0,0.,12.0,0.,12.0,0.,12.0,0.,12.0
1980-11-14 15:10:18.070 ,5,0,0.,12.0,0.,12.0,0.,12.0,0.,12.0
1980-11-14 15:10:30.070 ,5,0,0.,12.0,0.,12.0,0.,12.0,0.,12.0
1980-11-14 15:10:42.070 ,5,0,0.,12.0,0.,12.0,0.,12.0,0.,12.0
1980-11-14 15:10:54.070 ,5,0,0.,12.0,0.,12.0,0.,12.0,0.,12.0
1980-11-14 15:11:06.070 ,6,0,0.,12.0,0.,12.0,0.,12.0,0.,12.0
1980-11-14 15:11:18.070 ,6,0,0.,12.0,0.,12.0,0.,12.0,0.,12.0
1980-11-14 15:11:30.070 ,6,0,0.,12.0,0.,12.0,0.,12.0,0.,12.0
1980-11-14 15:11:42.070 ,6,0,0.,12.0,0.,12.0,0.,12.0,0.,12.0
1980-11-14 15:11:54.070 ,7,0,0.,12.0,0.,12.0,0.,12.0,0.,12.0
1980-11-14 15:12:06.070 ,7,0,0.,12.0,0.,12.0,0.,12.0,0.,12.0
1980-11-14 15:12:18.070 ,7,0,0.,12.0,0.,12.0,0.,12.0,0.,12.0
1980-11-14 15:12:30.070 ,7,0,0.,12.0,0.,12.0,0.,12.0,0.,12.0
1980-11-14 15:12:42.070 ,7,0,0.,12.0,0.,12.0,0.,12.0,0.,12.0
1980-11-14 15:12:54.070 ,7,0,0.,12.0,0.,12.0,0.,12.0,0.,12.0
1980-11-14 15:13:06.070 ,7,0,0.,12.0,0.,12.0,0.,12.0,0.,12.0
1980-11-14 15:13:18.070 ,7,0,0.,12.0,0.,12.0,0.,12.0,0.,12.0
1980-11-14 15:13:30.070 ,6,0,0.,12.0,0.,12.0,0.,12.0,0.,12.0
1980-11-14 15:13:42.070 ,6,0,0.,12.0,0.,12.0,0.,12.0,0.,12.0
1980-11-14 15:13:54.070 ,6,0,0.,12.0,0.,12.0,0.,12.0,0.,12.0
1980-11-14 15:14:06.070 ,6,0,0.,12.0,0.,12.0,0.,12.0,0.,12.0
1980-11-14 15:14:18.070 ,5,0,0.,12.0,0.,12.0,0.,12.0,0.,12.0
1980-11-14 15:14:30.070 ,5,0,0.,12.0,0.,12.0,0.,12.0,0.,12.0
1980-11-14 15:14:42.070 ,5,0,0.,12.0,0.,12.0,0.,12.0,0.,12.0
1980-11-14 15:14:54.070 ,5,0,0.,12.0,0.,12.0,0.,12.0,0.,12.0
1980-11-14 15:15:06.070 ,4,0,0.,12.0,0.,12.0,0.,12.0,0.,12.0
1980-11-14 15:15:18.070 ,4,0,0.,12.0,0.,12.0,0.,12.0,0.,12.0
1980-11-14 15:15:30.070 ,4,0,0.,12.0,0.,12.0,0.,12.0,0.,12.0
1980-11-14 15:15:42.070 ,4,0,0.,12.0,0.,12.0,0.,12.0,0.,12.0
1980-11-14 15:15:54.070 ,3,0,0.,12.0,0.,12.0,0.,12.0,0.,12.0
1980-11-14 15:16:06.070 ,3,0,0.,12.0,0.,12.0,0.,12.0,0.,12.0
1980-11-14 15:16:18.070 ,3,0,0.,12.0,0.,12.0,0.,12.0,0.,12.0
1980-11-14 15:16:30.070 ,3,0,0.,12.0,0.,12.0,0.,12.0,0.,12.0
1980-11-14 15:16:42.070 ,2,0,0.,12.0,0.,12.0,0.,12.0,0.,12.0
1980-11-14 15:16:54.070 ,2,0,0.,12.0,0.,12.0,0.,12.0,0.,12.0
1980-11-14 15:17:06.070 ,2,0,0.,12.0,0.,12.0,0.,12.0,0.,12.0
1980-11-14 15:17:18.070 ,2,0,0.,12.0,0.,12.0,0.,12.0,0.,12.0
1980-11-14 15:17:30.070 ,1,0,0.,12.0,0.,12.0,0.,12.0,0.,12.0
1980-11-14 15:17:42.070 ,1,0,0.,12.0,0.,12.0,0.,12.0,0.,12.0
1980-11-14 15:17:54.070 ,1,0,0.,12.0,0.,12.0,0.,12.0,0.,12.0
1980-11-14 15:18:06.070 ,1,0,0.,12.0,0.,12.0,0.,12.0,0.,12.0
1980-11-14 15:18:18.070 ,0,0,0.,12.0,0.,12.0,0.,12.0,0.,12.0
1980-11-14 15:18:30.070 ,0,0,0.,12.0,0.,12.0,0.,12.0,0.,12.0
1980-11-14 15:18:42.070 ,0,0,0.,12.0,0.,12.0,0.,12.0,0.,12.0
1980-11-14 15:18:54.070 ,0,0,0.,12.0,0.,12.0,0.,12.0,0.,12.0
1980-11-14 15:19:06.070 ,0,0,0.,12.0,0.,12.0,0.,12.0,0.,12.0
1980-11-14 15:19:18.070 ,0,0,0.,12.0,0.,12.0,0.,12.0,0.,12.0
1980-11-14 15:19:30.070 ,0,0,0.,12.0,0.,12.0,0.,12.0,0.,12.0
1980-11-14 15:19:42.070 ,0,0,0.,12.0,0.,12.0,0.,12.0,0.,12.0
1980-11-14 15:19:54.070 ,1,0,0.,12.0,0.,12.0,0.,12.0,0.,12.0
1980-11-14 15:20:06.070 ,1,0,0.,12.0,0.,12.0,0.,12.0,0.,12.0
1980-11-14 15:20:18.070 ,1,0,0.,12.0,0.,12.0,0.,12.0,0.,12.0
1980-11-14 15:20:30.070 ,1,0,0.,12.0,0.,12.0,0.,12.0,0.,12.0
1980-11-14 15:20:42.070 ,2,0,0.,12.0,0.,12.0,0.,12.0,0.,12.0
1980-11-14 15:20:54.070 ,2,0,0.,12.0,0.,12.0,0.,12.0,0.,12.0
1980-11-14 15:21:06.070 ,2,0,0.,12.0,0.,12.0,0.,12.0,0.,12.0
1980-11-14 15:21:18.070 ,2,0,0.,12.0,0.,12.0,0.,12.0,0.,12.0
1980-11-14 15:21:30.070 ,3,0,0.,12.0,0.,12.0,0.,12.0,0.,12.0
1980-11-14 15:21:42.070 ,3,0,0.,12.0,0.,12.0,0.,12.0,0.,12.0
1980-11-14 15:21:54.070 ,3,0,0.,12.0,0.,12.0,0.,12.0,0.,12.0
1980-11-14 15:22:06.070 ,3,0,0.,12.0,0.,12.0,0.,12.0,0.,12.0
1980-11-14 15:22:18.070 ,4,0,0.,12.0,0.,12.0,0.,12.0,0.,12.0
1980-11-14 15:22:30.070 ,4,0,0.,12.0,0.,12.0,0.,12.0,0.,12.0
1980-11-14 15:22:42.070 ,4,0,0.,12.0,0.,12.0,0.,12.0,0.,12.0
1980-11-14 15:22:54.070 ,4,0,0.,12.0,0.,12.0,0.,12.0,0.,12.0
1980-11-14 15:23:06.070 ,5,0,0.,12.0,0.,12.0,0.,12.0,0.,12.0
1980-11-14 15:23:18.070 ,5,0,0.,12.0,0.,12.0,0.,12.0,0.,12.0
1980-11-14 15:23:30.070 ,5,0,0.,12.0,0.,12.0,0.,12.0,0.,12.0
1980-11-14 15:23:42.070 ,5,0,0.,12.0,0.,12.0,0.,12.0,0.,12.0
1980-11-14 15:23:54.070 ,6,0,0.,12.0,0.,12.0,0.,12.0,0.,12.0
1980-11-14 15:24:06.070 ,6,0,0.,12.0,0.,12.0,0.,12.0,0.,12.0
1980-11-14 15:24:18.070 ,6,0,0.,12.0,0.,12.0,0.,12.0,0.,12.0
1980-11-14 15:24:30.070 ,6,0,0.,12.0,0.,12.0,0.,12.0,0.,12.0
1980-11-14 15:24:42.070 ,7,0,0.,12.0,0.,12.0,0.,12.0,0.,12.0
1980-11-14 15:24:54.070 ,7,0,0.,12.0,0.,12.0,0.,12.0,0.,12.0
1980-11-14 15:25:06.070 ,7,0,0.,12.0,0.,12.0,0.,12.0,0.,12.0
1980-11-14 15:25:18.070 ,7,0,0.,12.0,0.,12.0,0.,12.0,0.,12.0
1980-11-14 15:25:30.070 ,7,0,0.,12.0,0.,12.0,0.,12.0,0.,12.0
1980-11-14 15:25:42.070 ,7,0,0.,12.0,0.,12.0,0.,12.0,0.,12.0
1980-11-14 15:25:54.070 ,7,0,0.,12.0,0.,12.0,0.,12.0,0.,12.0
1980-11-14 15:26:06.070 ,7,0,0.,12.0,0.,12.0,0.,12.0,0.,12.0
1980-11-14 15:26:18.070 ,6,0,0.,12.0,0.,12.0,0.,12.0,0.,12.0
1980-11-14 15:26:30.070 ,6,0,0.,12.0,0.,12.0,0.,12.0,0.,12.0
1980-11-14 15:26:42.070 ,6,0,0.,12.0,0.,12.0,0.,12.0,0.,12.0
1980-11-14 15:26:54.070 ,6,0,0.,12.0,0.,12.0,0.,12.0,0.,12.0
1980-11-14 15:27:06.070 ,5,0,0.,12.0,0.,12.0,0.,12.0,0.,12.0
1980-11-14 15:27:18.070 ,5,0,0.,12.0,0.,12.0,0.,12.0,0.,12.0
1980-11-14 15:27:30.070 ,5,0,0.,12.0,0.,12.0,0.,12.0,0.,12.0
1980-11-14 15:27:42.070 ,5,0,0.,12.0,0.,12.0,0.,12.0,0.,12.0
1980-11-14 15:27:54.070 ,4,0,0.,12.0,0.,12.0,0.,12.0,0.,12.0
1980-11-14 15:28:06.070 ,4,0,0.,12.0,0.,12.0,0.,12.0,0.,12.0
1980-11-14 15:28:18.070 ,4,0,0.,12.0,0.,12.0,0.,12.0,0.,12.0
1980-11-14 15:28:30.070 ,4,0,0.,12.0,0.,12.0,0.,12.0,0.,12.0
1980-11-14 15:28:42.070 ,3,0,0.,12.0,0.,12.0,0.,12.0,0.,12.0
1980-11-14 15:28:54.070 ,3,0,0.,12.0,0.,12.0,0.,12.0,0.,12.0
1980-11-14 15:29:06.070 ,3,0,0.,12.0,0.,12.0,0.,12.0,0.,12.0
1980-11-14 15:29:18.070 ,3,0,0.,12.0,0.,12.0,0.,12.0,0.,12.0
1980-11-14 15:29:30.070 ,2,0,0.,12.0,0.,12.0,0.,12.0,0.,12.0
1980-11-14 15:29:42.070 ,2,0,0.,12.0,0.,12.0,0.,12.0,0.,12.0
1980-11-14 15:29:54.070 ,2,0,0.,12.0,0.,12.0,0.,12.0,0.,12.0
1980-11-14 15:30:06.070 ,2,0,0.,12.0,0.,12.0,0.,12.0,0.,12.0
1980-11-14 15:30:18.070 ,1,0,0.,12.0,0.,12.0,0.,12.0,0.,12.0
1980-11-14 15:30:30.070 ,1,0,0.,12.0,0.,12.0,0.,12.0,0.,12.0
1980-11-14 15:30:42.070 ,1,0,0.,12.0,0.,12.0,0.,12.0,0.,12.0
1980-11-14 15:30:54.070 ,1,0,0.,12.0,0.,12.0,0.,12.0,0.,12.0
1980-11-14 15:31:06.070 ,0,0,0.,12.0,0.,12.0,0.,12.0,0.,12.0
1980-11-14 15:31:18.070 ,0,0,0.,12.0,0.,12.0,0.,12.0,0.,12.0
1980-11-14 15:31:30.070 ,0,0,0.,12.0,0.,12.0,0.,12.0,0.,12.0
1980-11-14 15:31:42.070 ,0,0,0.,12.0,0.,12.0,0.,12.0,0.,12.0
1980-11-14 15:31:54.070 ,0,0,0.,12.0,0.,12.0,0.,12.0,0.,12.0
1980-11-14 15:32:06.070 ,0,0,0.,12.0,0.,12.0,0.,12.0,0.,12.0
1980-11-14 15:32:18.070 ,0,0,0.,12.0,0.,12.0,0.,12.0,0.,12.0
1980-11-14 15:32:30.070 ,0,0,0.,12.0,0.,12.0,0.,12.0,0.,12.0
1980-11-14 15:32:42.070 ,1,0,0.,12.0,0.,12.0,0.,12.0,0.,12.0
1980-11-14 15:32:54.070 ,1,0,0.,12.0,0.,12.0,0.,12.0,0.,12.0
1980-11-14 15:33:06.070 ,1,0,0.,12.0,0.,12.0,0.,12.0,0.,12.0
1980-11-14 15:33:18.070 ,1,0,0.,12.0,0.,12.0,0.,12.0,0.,12.0
1980-11-14 15:33:30.070 ,2,0,0.,12.0,0.,12.0,0.,12.0,0.,12.0
1980-11-14 15:33:42.070 ,2,0,0.,12.0,0.,12.0,0.,12.0,0.,12.0
1980-11-14 15:33:54.070 ,2,0,0.,12.0,0.,12.0,0.,12.0,0.,12.0
1980-11-14 15:34:06.070 ,2,0,0.,12.0,0.,12.0,0.,12.0,0.,12.0
1980-11-14 15:34:18.070 ,3,0,0.,12.0,0.,12.0,0.,12.0,0.,12.0
1980-11-14 15:34:30.070 ,3,0,0.,12.0,0.,12.0,0.,12.0,0.,12.0
1980-11-14 15:34:42.070 ,3,0,0.,12.0,0.,12.0,0.,12.0,0.,12.0
1980-11-14 15:34:54.070 ,3,0,0.,12.0,0.,12.0,0.,12.0,0.,12.0
1980-11-14 15:35:06.070 ,4,0,0.,12.0,0.,12.0,0.,12.0,0.,12.0
1980-11-14 15:35:18.070 ,4,0,0.,12.0,0.,12.0,0.,12.0,0.,12.0
1980-11-14 15:35:30.070 ,4,0,0.,12.0,0.,12.0,0.,12.0,0.,12.0
1980-11-14 15:35:42.070 ,4,0,0.,12.0,0.,12.0,0.,12.0,0.,12.0
1980-11-14 15:35:54.070 ,5,0,0.,12.0,0.,12.0,0.,12.0,0.,12.0
1980-11-14 15:36:06.070 ,5,0,0.,12.0,0.,12.0,0.,12.0,0.,12.0
1980-11-14 15:36:18.070 ,5,0,0.,12.0,0.,12.0,0.,12.0,0.,12.0
1980-11-14 15:36:30.070 ,5,0,0.,12.0,0.,12.0,0.,12.0,0.,12.0
1980-11-14 15:36:42.070 ,6,0,0.,12.0,0.,12.0,0.,12.0,0.,12.0
1980-11-14 15:36:54.070 ,6,0,0.,12.0,0.,12.0,0.,12.0,0.,12.0
1980-11-14 15:37:06.070 ,6,0,0.,12.0,0.,12.0,0.,12.0,0.,12.0
1980-11-14 15:37:18.070 ,6,0,0.,12.0,0.,12.0,0.,12.0,0.,12.0
1980-11-14 15:37:30.070 ,7,0,0.,12.0,0.,12.0,0.,12.0,0.,12.0
1980-11-14 15:37:42.070 ,7,0,0.,12.0,0.,12.0,0.,12.0,0.,12.0
1980-11-14 15:37:54.070 ,7,0,0.,12.0,0.,12.0,0.,12.0,0.,12.0
1980-11-14 15:38:06.070 ,7,0,0.,12.0,0.,12.0,0.,12.0,0.,12.0
1980-11-14 15:38:18.070 ,7,0,0.,12.0,0.,12.0,0.,12.0,0.,12.0
1980-11-14 15:38:30.070 ,7,0,0.,12.0,0.,12.0,0.,12.0,0.,12.0
1980-11-14 15:38:42.070 ,7,0,0.,12.0,0.,12.0,0.,12.0,0.,12.0
1980-11-14 15:38:54.070 ,7,0,0.,12.0,0.,12.0,0.,12.0,0.,12.0
1980-11-14 15:39:06.070 ,6,0,0.,12.0,0.,12.0,0.,12.0,0.,12.0
1980-11-14 15:39:18.070 ,6,0,0.,12.0,0.,12.0,0.,12.0,0.,12.0
1980-11-14 15:39:30.070 ,0,0,,0,,0,,0,,0
1980-11-14 15:39:42.070 ,0,0,,0,,0,,0,,0
1980-11-14 15:39:54.070 ,5,0,0.,12.0,0.,12.0,0.,12.0,0.,12.0
1980-11-14 15:40:06.070 ,5,0,0.,12.0,0.,12.0,0.,12.0,0.,12.0
1980-11-14 15:40:18.070 ,5,0,0.,12.0,0.,12.0,0.,12.0,0.,12.0
1980-11-14 15:40:30.070 ,5,0,0.,12.0,0.,12.0,0.,12.0,0.,12.0
1980-11-14 15:40:42.070 ,4,0,0.,12.0,0.,12.0,0.,12.0,0.,12.0
1980-11-14 15:40:54.070 ,4,0,0.,12.0,0.,12.0,0.,12.0,0.,12.0
1980-11-14 15:41:06.070 ,4,0,0.,12.0,0.,12.0,0.,12.0,0.,12.0
1980-11-14 15:41:18.070 ,4,0,0.,12.0,0.,12.0,0.,12.0,0.,12.0
1980-11-14 15:41:30.070 ,3,0,0.,12.0,0.,12.0,0.,12.0,0.,12.0
1980-11-14 15:41:42.070 ,3,0,0.,12.0,0.,12.0,0.,12.0,0.,12.0
1980-11-14 15:41:54.070 ,3,0,0.,12.0,0.,12.0,0.,12.0,0.,12.0
1980-11-14 15:42:06.070 ,3,0,0.,12.0,0.,12.0,0.,12.0,0.,12.0
1980-11-14 15:42:18.070 ,2,0,0.,12.0,0.,12.0,0.,12.0,0.,12.0
1980-11-14 15:42:30.070 ,2,0,0.,12.0,0.,12.0,0.,12.0,0.,12.0
1980-11-14 15:42:42.070 ,2,0,0.,12.0,0.,12.0,0.,12.0,0.,12.0
1980-11-14 15:42:54.070 ,2,0,0.,12.0,0.,12.0,0.,12.0,0.,12.0
1980-11-14 15:43:06.070 ,1,0,0.,12.0,0.,12.0,0.,12.0,0.,12.0
1980-11-14 15:43:18.070 ,1,0,0.,12.0,0.,12.0,0.,12.0,0.,12.0
1980-11-14 15:43:30.070 ,1,0,0.,12.0,0.,12.0,0.,12.0,0.,12.0
1980-11-14 15:43:42.070 ,1,0,0.,12.0,0.,12.0,0.,12.0,0.,12.0
1980-11-14 15:43:54.070 ,0,0,0.,12.0,0.,12.0,0.,12.0,0.,12.0
1980-11-14 15:44:06.070 ,0,0,0.,12.0,0.,12.0,0.,12.0,0.,12.0
1980-11-14 15:44:18.070 ,0,0,0.,12.0,0.,12.0,0.,12.0,0.,12.0
1980-11-14 15:44:30.070 ,0,0,0.,12.0,0.,12.0,0.,12.0,0.,12.0
1980-11-14 15:44:42.070 ,0,0,0.,12.0,0.,12.0,0.,12.0,0.,12.0
1980-11-14 15:44:54.070 ,0,0,0.,12.0,0.,12.0,0.,12.0,0.,12.0
1980-11-14 15:45:06.070 ,0,0,0.,12.0,0.,12.0,0.,12.0,0.,12.0
1980-11-14 15:45:18.070 ,0,0,0.,12.0,0.,12.0,0.,12.0,0.,12.0
1980-11-14 15:45:30.070 ,1,0,0.,12.0,0.,12.0,0.,12.0,0.,12.0
1980-11-14 15:45:42.070 ,1,0,0.,12.0,0.,12.0,0.,12.0,0.,12.0
1980-11-14 15:45:54.070 ,1,0,0.,12.0,0.,12.0,0.,12.0,0.,12.0
1980-11-14 15:46:06.070 ,1,0,0.,12.0,0.,12.0,0.,12.0,0.,12.0
1980-11-14 15:46:18.070 ,2,0,0.,12.0,0.,12.0,0.,12.0,0.,12.0
1980-11-14 15:46:30.070 ,2,0,0.,12.0,0.,12.0,0.,12.0,0.,12.0
1980-11-14 15:46:42.070 ,2,0,0.,12.0,0.,12.0,0.,12.0,0.,12.0
1980-11-14 15:46:54.070 ,2,0,0.,12.0,0.,12.0,0.,12.0,0.,12.0
1980-11-14 15:47:06.070 ,3,0,0.,12.0,0.,12.0,0.,12.0,0.,12.0
1980-11-14 15:47:18.070 ,3,0,0.,12.0,0.,12.0,0.,12.0,0.,12.0
1980-11-14 15:47:30.070 ,3,0,0.,12.0,0.,12.0,0.,12.0,0.,12.0
1980-11-14 15:47:42.070 ,3,0,0.,12.0,0.,12.0,0.,12.0,0.,12.0
1980-11-14 15:47:54.070 ,4,0,0.,12.0,0.,12.0,0.,12.0,0.,12.0
1980-11-14 15:48:06.070 ,4,0,0.,12.0,0.,12.0,0.,12.0,0.,12.0
1980-11-14 15:48:18.070 ,4,0,0.,12.0,0.,12.0,0.,12.0,0.,12.0
1980-11-14 15:48:30.070 ,4,0,0.,12.0,0.,12.0,0.,12.0,0.,12.0
1980-11-14 15:48:42.070 ,5,0,0.,12.0,0.,12.0,0.,12.0,0.,12.0
1980-11-14 15:48:54.070 ,5,0,0.,12.0,0.,12.0,0.,12.0,0.,12.0
1980-11-14 15:49:06.070 ,5,0,0.,12.0,0.,12.0,0.,12.0,0.,12.0
1980-11-14 15:49:18.070 ,5,0,0.,12.0,0.,12.0,0.,12.0,0.,12.0
1980-11-14 15:49:30.070 ,6,0,0.,12.0,0.,12.0,0.,12.0,0.,12.0
1980-11-14 15:49:42.070 ,6,0,0.,12.0,0.,12.0,0.,12.0,0.,12.0
1980-11-14 15:49:54.070 ,6,0,0.,12.0,0.,12.0,0.,12.0,0.,12.0
1980-11-14 15:50:06.070 ,6,0,0.,12.0,0.,12.0,0.,12.0,0.,12.0
1980-11-14 15:50:18.070 ,7,0,0.,12.0,0.,12.0,0.,12.0,0.,12.0
1980-11-14 15:50:30.070 ,7,0,0.,12.0,0.,12.0,0.,12.0,0.,12.0
1980-11-14 15:50:42.070 ,7,0,0.,12.0,0.,12.0,0.,12.0,0.,12.0
1980-11-14 15:50:54.070 ,7,0,0.,12.0,0.,12.0,0.,12.0,0.,12.0
1980-11-14 15:51:06.070 ,7,0,0.,12.0,0.,12.0,0.,12.0,0.,12.0
1980-11-14 15:51:18.070 ,7,0,0.,12.0,0.,12.0,0.,12.0,0.,12.0
1980-11-14 15:51:30.070 ,7,0,0.,12.0,0.,12.0,0.,12.0,0.,12.0
1980-11-14 15:51:42.070 ,7,0,0.,12.0,0.,12.0,0.,12.0,0.,12.0
1980-11-14 15:51:54.070 ,6,0,0.,12.0,0.,12.0,0.,12.0,0.,12.0
1980-11-14 15:52:06.070 ,6,0,0.,12.0,0.,12.0,0.,12.0,0.,12.0
1980-11-14 15:52:18.070 ,6,0,0.,12.0,0.,12.0,0.,12.0,0.,12.0
1980-11-14 15:52:30.070 ,6,0,0.,12.0,0.,12.0,0.,12.0,0.,12.0
1980-11-14 15:52:42.070 ,5,0,0.,12.0,0.,12.0,0.,12.0,0.,12.0
1980-11-14 15:52:54.070 ,5,0,0.,12.0,0.,12.0,0.,12.0,0.,12.0
1980-11-14 15:53:06.070 ,5,0,0.,12.0,0.,12.0,0.,12.0,0.,12.0
1980-11-14 15:53:18.070 ,5,0,0.,12.0,0.,12.0,0.,12.0,0.,12.0
1980-11-14 15:53:30.070 ,4,0,0.,12.0,0.,12.0,0.,12.0,0.,12.0
1980-11-14 15:53:42.070 ,4,0,0.,12.0,0.,12.0,0.,12.0,0.,12.0
1980-11-14 15:53:54.070 ,4,0,0.,12.0,0.,12.0,0.,12.0,0.,12.0
1980-11-14 15:54:06.070 ,4,0,0.,12.0,0.,12.0,0.,12.0,0.,12.0
1980-11-14 15:54:18.070 ,3,0,0.,12.0,0.,12.0,0.,12.0,0.,12.0
1980-11-14 15:54:30.070 ,3,0,0.,12.0,0.,12.0,0.,12.0,0.,12.0
1980-11-14 15:54:42.070 ,3,0,0.,12.0,0.,12.0,0.,12.0,0.,12.0
1980-11-14 15:54:54.070 ,3,0,0.,12.0,0.,12.0,0.,12.0,0.,12.0
1980-11-14 15:55:06.070 ,2,0,0.,12.0,0.,12.0,0.,12.0,0.,12.0
1980-11-14 15:55:18.070 ,2,0,0.,12.0,0.,12.0,0.,12.0,0.,12.0
1980-11-14 15:55:30.070 ,2,0,0.,12.0,0.,12.0,0.,12.0,0.,12.0
1980-11-14 15:55:42.070 ,2,0,0.,12.0,0.,12.0,0.,12.0,0.,12.0
1980-11-14 15:55:54.070 ,1,0,0.,12.0,0.,12.0,0.,12.0,0.,12.0
1980-11-14 15:56:06.070 ,1,0,0.,12.0,0.,12.0,0.,12.0,0.,12.0
1980-11-14 15:56:18.070 ,1,0,0.,12.0,0.,12.0,0.,12.0,0.,12.0
1980-11-14 15:56:30.070 ,1,0,0.,12.0,0.,12.0,0.,12.0,0.,12.0
1980-11-14 15:56:42.070 ,0,0,0.,12.0,0.,12.0,0.,12.0,0.,12.0
1980-11-14 15:56:54.070 ,0,0,0.,12.0,0.,12.0,0.,12.0,0.,12.0
1980-11-14 15:57:06.070 ,0,0,0.,12.0,0.,12.0,0.,12.0,0.,12.0
1980-11-14 15:57:18.070 ,0,0,0.,12.0,0.,12.0,0.,12.0,0.,12.0
1980-11-14 15:57:30.070 ,0,0,0.,12.0,0.,12.0,0.,12.0,0.,12.0
1980-11-14 15:57:42.070 ,0,0,0.,12.0,0.,12.0,0.,12.0,0.,12.0
1980-11-14 15:57:54.070 ,0,0,0.,12.0,0.,12.0,0.,12.0,0.,12.0
1980-11-14 15:58:06.070 ,0,0,0.,12.0,0.,12.0,0.,12.0,0.,12.0
1980-11-14 15:58:18.070 ,1,0,0.,12.0,0.,12.0,0.,12.0,0.,12.0
1980-11-14 15:58:30.070 ,1,0,0.,12.0,0.,12.0,0.,12.0,0.,12.0
1980-11-14 15:58:42.070 ,1,0,0.,12.0,0.,12.0,0.,12.0,0.,12.0
1980-11-14 15:58:54.070 ,1,0,0.,12.0,0.,12.0,0.,12.0,0.,12.0
1980-11-14 15:59:54.070 ,0,0,0.,12.0,0.,12.0,0.,12.0,0.,12.0
1980-11-14 16:00:06.070 ,0,0,0.,12.0,0.,12.0,0.,12.0,0.,12.0
1980-11-14 16:00:18.070 ,0,0,0.,12.0,0.,12.0,0.,12.0,0.,12.0
1980-11-14 16:00:30.070 ,0,0,0.,12.0,0.,12.0,0.,12.0,0.,12.0
1980-11-14 16:00:42.070 ,4,0,0.,12.0,0.,12.0,0.,12.0,0.,12.0
1980-11-14 16:00:54.070 ,4,0,0.,12.0,0.,12.0,0.,12.0,0.,12.0
1980-11-14 16:01:06.070 ,4,0,0.,12.0,0.,12.0,0.,12.0,0.,12.0
1980-11-14 16:01:18.070 ,4,0,0.,12.0,0.,12.0,0.,12.0,0.,12.0
1980-11-14 16:01:30.070 ,5,0,0.,12.0,0.,12.0,0.,12.0,0.,12.0
1980-11-14 16:01:42.070 ,5,0,0.,12.0,0.,12.0,0.,12.0,0.,12.0
1980-11-14 16:01:54.070 ,5,0,0.,12.0,0.,12.0,0.,12.0,0.,12.0
1980-11-14 16:02:06.070 ,5,0,0.,12.0,0.,12.0,0.,12.0,0.,12.0
1980-11-14 16:02:18.070 ,6,0,0.,12.0,0.,12.0,0.,12.0,0.,12.0
1980-11-14 16:02:30.070 ,6,0,0.,12.0,0.,12.0,0.,12.0,0.,12.0
1980-11-14 16:02:42.070 ,6,0,0.,12.0,0.,12.0,0.,12.0,0.,12.0
1980-11-14 16:02:54.070 ,6,0,0.,12.0,0.,12.0,0.,12.0,0.,12.0
1980-11-14 16:03:06.070 ,7,0,0.,12.0,0.,12.0,0.,12.0,0.,12.0
1980-11-14 16:03:18.070 ,7,0,0.,12.0,0.,12.0,0.,12.0,0.,12.0
1980-11-14 16:03:30.070 ,7,0,0.,12.0,0.,12.0,0.,12.0,0.,12.0
1980-11-14 16:03:42.070 ,7,0,0.,12.0,0.,12.0,0.,12.0,0.,12.0
1980-11-14 16:03:54.070 ,7,0,0.,12.0,0.,12.0,0.,12.0,0.,12.0
1980-11-14 16:04:06.070 ,7,0,0.,12.0,0.,12.0,0.,12.0,0.,12.0
1980-11-14 16:04:18.070 ,7,0,0.,12.0,0.,12.0,0.,12.0,0.,12.0
1980-11-14 16:04:30.070 ,7,0,0.,12.0,0.,12.0,0.,12.0,0.,12.0
1980-11-14 16:04:42.070 ,6,0,0.,12.0,0.,12.0,0.,12.0,0.,12.0
1980-11-14 16:04:54.070 ,6,0,0.,12.0,0.,12.0,0.,12.0,0.,12.0
1980-11-14 16:05:06.070 ,6,0,0.,12.0,0.,12.0,0.,12.0,0.,12.0
1980-11-14 16:05:18.070 ,6,0,0.,12.0,0.,12.0,0.,12.0,0.,12.0
1980-11-14 16:05:30.070 ,5,0,0.,12.0,0.,12.0,0.,12.0,0.,12.0
1980-11-14 16:05:42.070 ,5,0,0.,12.0,0.,12.0,0.,12.0,0.,12.0
1980-11-14 16:05:54.070 ,5,0,0.,12.0,0.,12.0,0.,12.0,0.,12.0
1980-11-14 16:06:06.070 ,5,0,0.,12.0,0.,12.0,0.,12.0,0.,12.0
1980-11-14 16:06:18.070 ,4,0,0.,12.0,0.,12.0,0.,12.0,0.,12.0
1980-11-14 16:06:30.070 ,4,0,0.,12.0,0.,12.0,0.,12.0,0.,12.0
1980-11-14 16:06:42.070 ,4,0,0.,12.0,0.,12.0,0.,12.0,0.,12.0
1980-11-14 16:06:54.070 ,4,0,0.,12.0,0.,12.0,0.,12.0,0.,12.0
1980-11-14 16:07:06.070 ,3,0,0.,12.0,0.,12.0,0.,12.0,0.,12.0
1980-11-14 16:07:18.070 ,3,0,0.,12.0,0.,12.0,0.,12.0,0.,12.0
1980-11-14 16:07:30.070 ,3,0,0.,12.0,0.,12.0,0.,12.0,0.,12.0
1980-11-14 16:07:42.070 ,3,0,0.,12.0,0.,12.0,0.,12.0,0.,12.0
1980-11-14 16:07:54.070 ,2,0,0.,12.0,0.,12.0,0.,12.0,0.,12.0
1980-11-14 16:08:06.070 ,2,0,0.,12.0,0.,12.0,0.,12.0,0.,12.0
1980-11-14 16:08:18.070 ,2,0,0.,12.0,0.,12.0,0.,12.0,0.,12.0
1980-11-14 16:08:30.070 ,2,0,0.,12.0,0.,12.0,0.,12.0,0.,12.0
1980-11-14 16:08:42.070 ,1,0,0.,12.0,0.,12.0,0.,12.0,0.,12.0
1980-11-14 16:08:54.070 ,1,0,0.,12.0,0.,12.0,0.,12.0,0.,12.0
1980-11-14 16:09:06.070 ,1,0,0.,12.0,0.,12.0,0.,12.0,0.,12.0
1980-11-14 16:09:18.070 ,1,0,0.,12.0,0.,12.0,0.,12.0,0.,12.0
1980-11-14 16:09:30.070 ,0,0,0.,12.0,0.,12.0,0.,12.0,0.,12.0
1980-11-14 16:09:42.070 ,0,0,0.,12.0,0.,12.0,0.,12.0,0.,12.0
1980-11-14 16:09:54.070 ,0,0,0.,12.0,0.,12.0,0.,12.0,0.,12.0
1980-11-14 16:10:06.070 ,0,0,0.,12.0,0.,12.0,0.,12.0,0.,12.0
1980-11-14 16:10:18.070 ,0,0,0.,12.0,0.,12.0,0.,12.0,0.,12.0
1980-11-14 16:10:30.070 ,0,0,0.,12.0,0.,12.0,0.,12.0,0.,12.0
1980-11-14 16:10:42.070 ,0,0,0.,12.0,0.,12.0,0.,12.0,0.,12.0
1980-11-14 16:10:54.070 ,0,0,0.,12.0,0.,12.0,0.,12.0,0.,12.0
1980-11-14 16:14:12.070 ,0,0,,0,,0,,0,,0
1980-11-14 16:14:24.070 ,0,0,0.,12.0,0.,12.0,0.,12.0,0.,12.0
1980-11-14 16:14:22.270 ,0,0,0.,12.0,0.,12.0,0.,12.0,0.,12.0
1980-11-14 16:14:34.270 ,0,0,0.,12.0,0.,12.0,0.,12.0,0.,12.0
1980-11-14 16:14:42.070 ,0,0,0.,12.0,0.,12.0,0.,12.0,0.,12.0
1980-11-14 16:14:54.070 ,0,0,0.,12.0,0.,12.0,0.,12.0,0.,12.0
1980-11-14 16:15:06.070 ,6,0,0.,12.0,0.,12.0,0.,12.0,0.,12.0
1980-11-14 16:15:18.070 ,6,0,0.,12.0,0.,12.0,0.,12.0,0.,12.0
1980-11-14 16:15:30.070 ,6,0,0.,12.0,0.,12.0,0.,12.0,0.,12.0
1980-11-14 16:15:42.070 ,6,0,0.,12.0,0.,12.0,0.,12.0,0.,12.0
1980-11-14 16:15:54.070 ,7,0,0.,12.0,0.,12.0,0.,12.0,0.,12.0
1980-11-14 16:16:06.070 ,7,0,0.,12.0,0.,12.0,0.,12.0,0.,12.0
1980-11-14 16:16:18.070 ,7,0,0.,12.0,0.,12.0,0.,12.0,0.,12.0
1980-11-14 16:16:30.070 ,7,0,0.,12.0,0.,12.0,0.,12.0,0.,12.0
1980-11-14 16:16:42.070 ,7,0,0.,12.0,0.,12.0,0.,12.0,0.,12.0
1980-11-14 16:16:54.070 ,7,0,0.,12.0,0.,12.0,0.,12.0,0.,12.0
1980-11-14 16:17:06.070 ,7,0,0.,12.0,0.,12.0,0.,12.0,0.,12.0
1980-11-14 16:17:18.070 ,7,0,0.,12.0,0.,12.0,0.,12.0,0.,12.0
1980-11-14 16:17:30.070 ,6,0,0.,12.0,0.,12.0,0.,12.0,0.,12.0
1980-11-14 16:17:42.070 ,6,0,0.,12.0,0.,12.0,0.,12.0,0.,12.0
1980-11-14 16:17:54.070 ,6,0,0.,12.0,0.,12.0,0.,12.0,0.,12.0
1980-11-14 16:18:06.070 ,6,0,0.,12.0,0.,12.0,0.,12.0,0.,12.0
1980-11-14 16:18:18.070 ,5,0,0.,12.0,0.,12.0,0.,12.0,0.,12.0
1980-11-14 16:18:30.070 ,5,0,0.,12.0,0.,12.0,0.,12.0,0.,12.0
1980-11-14 16:18:42.070 ,5,0,0.,12.0,0.,12.0,0.,12.0,0.,12.0
1980-11-14 16:18:54.070 ,5,0,0.,12.0,0.,12.0,0.,12.0,0.,12.0
1980-11-14 16:19:06.070 ,4,0,0.,12.0,0.,12.0,0.,12.0,0.,12.0
1980-11-14 16:19:18.070 ,4,0,0.,12.0,0.,12.0,0.,12.0,0.,12.0
1980-11-14 16:19:30.070 ,4,0,0.,12.0,0.,12.0,0.,12.0,0.,12.0
1980-11-14 16:19:42.070 ,4,0,0.,12.0,0.,12.0,0.,12.0,0.,12.0
1980-11-14 16:19:54.070 ,3,0,0.,12.0,0.,12.0,0.,12.0,0.,12.0
1980-11-14 16:20:06.070 ,3,0,0.,12.0,0.,12.0,0.,12.0,0.,12.0
1980-11-14 16:20:18.070 ,3,0,0.,12.0,0.,12.0,0.,12.0,0.,12.0
1980-11-14 16:20:30.070 ,3,0,0.,12.0,0.,12.0,0.,12.0,0.,12.0
1980-11-14 16:20:42.070 ,2,0,1.,12.0,0.,12.0,0.,12.0,0.,12.0
1980-11-14 16:20:54.070 ,2,0,0.,12.0,0.,12.0,0.,12.0,0.,12.0
1980-11-14 16:21:06.070 ,2,0,0.,12.0,0.,12.0,0.,12.0,0.,12.0